Weather reports worldwide

Advertisment
Colmar, France (7197): temperature & dewpoint: 14.10.2018 16:00:00 - 20.10.2018 16:00:00 (CEST)Colmar, France (7197): temperature 5cm: 14.10.2018 16:00:00 - 20.10.2018 16:00:00 (CEST)Colmar, France (7197): temperature -20cm & temperature -100cm: 14.10.2018 16:00:00 - 20.10.2018 16:00:00 (CEST)Colmar, France (7197): wind speed & gusts: 14.10.2018 16:00:00 - 20.10.2018 16:00:00 (CEST)Colmar, France (7197): wind direction: 14.10.2018 16:00:00 - 20.10.2018 16:00:00 (CEST)Colmar, France (7197): reduced air pressure: 14.10.2018 16:00:00 - 20.10.2018 16:00:00 (CEST)Colmar, France (7197): visibility: 14.10.2018 16:00:00 - 20.10.2018 16:00:00 (CEST)Colmar, France (7197): sunshine duration: 14.10.2018 16:00:00 - 20.10.2018 16:00:00 (CEST)Colmar, France (7197): precipitation: 14.10.2018 16:00:00 - 20.10.2018 16:00:00 (CEST)
Date & Time tt [°C] td [°C] tt 5cm [°C] tt -20cm [°C] tt -100cm [°C] ff [km/h] ff [kn] fx [km/h] fx [kn] dd ppp [hPa] vv [km] sd [min] rr [mm]
20.10.2018 16:00:00 - - - - - - - - - - - - - -
20.10.2018 15:00:00 14,8 10,2 17,6 14,0 17,7 11 6 21 12 ENE 1028,4 6 54 0,0
20.10.2018 14:00:00 13,4 10,0 13,9 13,7 17,7 7 4 16 9 NNE 1028,8 5 6 0,0
20.10.2018 13:00:00 12,5 9,9 14,0 13,5 17,7 9 5 20 11 NNE 1029,6 5 0 0,0
20.10.2018 12:00:00 10,9 10,0 11,6 13,4 17,7 5 3 13 7 NNE 1029,8 3,9 0 0,0
20.10.2018 11:00:00 10,1 9,9 10,4 13,3 17,7 5 3 8 5 ENE 1029,5 1,4 0 0,0
20.10.2018 10:00:00 8,9 8,8 7,1 13,4 17,7 3 2 5 3 SSE 1029,1 0,8 0 0,0
20.10.2018 09:00:00 6,5 6,4 4,9 13,5 17,7 3 2 5 3 S 1028,4 2,5 0 0,0
20.10.2018 08:00:00 4,7 4,6 4,2 13,7 17,7 2 1 4 2 SSW 1028,3 0,2 0 0,0
20.10.2018 07:00:00 4,3 4,0 3,7 13,8 17,7 0 0 3 2 N 1027,9 0,1 0 0,0
20.10.2018 06:00:00 5,0 4,9 4,4 14,1 17,7 0 0 3 1 N 1027,2 0,1 0 0,0
20.10.2018 05:00:00 4,4 4,1 3,5 14,4 17,7 0 0 3 1 N 1026,2 1,0 0 0,0
20.10.2018 04:00:00 4,8 4,4 2,8 14,6 17,8 0 0 4 2 N 1026,1 0,3 0 0,0
20.10.2018 03:00:00 5,0 4,6 2,7 14,9 17,8 0 0 5 3 N 1025,7 0,1 0 0,0
20.10.2018 02:00:00 5,2 4,6 2,8 15,2 17,7 2 1 4 2 SW 1025,6 1,5 0 0,0
20.10.2018 01:00:00 5,6 4,9 3,1 15,5 17,8 3 1 4 2 SSW 1025,5 2,0 0 0,0
20.10.2018 00:00:00 6,7 6,0 4,0 15,9 17,8 0 0 3 1 N 1025,1 3,1 0 0,0
19.10.2018 23:00:00 7,9 6,8 5,3 16,1 17,8 2 1 4 2 E 1024,7 2,3 0 0,0
19.10.2018 22:00:00 9,0 8,2 5,7 16,4 17,8 0 0 3 2 N 1024,2 3,6 0 0,0
19.10.2018 21:00:00 9,6 9,0 6,0 16,6 17,8 0 0 5 3 N 1023,5 4,0 0 0,0
19.10.2018 20:00:00 9,7 8,0 6,7 16,8 17,8 5 3 6 4 WNW 1023,0 5 0 0,0
19.10.2018 19:00:00 13,1 9,0 9,3 16,8 17,8 3 1 12 6 SE 1022,0 10 3 0,0
19.10.2018 18:00:00 16,4 10,3 16,7 16,6 17,8 7 4 11 6 SE 1021,3 12 58 0,0
19.10.2018 17:00:00 18,1 10,7 22,0 16,2 17,8 5 3 13 7 E 1020,8 12 60 0,0
19.10.2018 16:00:00 17,6 10,5 22,8 15,8 17,8 7 4 12 7 E 1020,8 11 60 0,0
19.10.2018 15:00:00 16,8 10,4 21,7 15,4 17,8 6 3 17 9 E 1021,4 10 60 0,0
19.10.2018 14:00:00 15,6 10,4 20,4 15,0 17,8 9 5 18 10 E 1021,8 9 60 0,0
19.10.2018 13:00:00 13,7 10,1 14,2 14,9 17,8 7 4 15 8 ENE 1022,4 7 10 0,0
19.10.2018 12:00:00 12,3 10,0 12,6 14,8 17,8 10 5 18 10 NNE 1022,8 6 0 0,0
19.10.2018 11:00:00 11,6 10,0 11,7 14,8 17,8 10 5 18 10 NNE 1022,9 4,6 0 0,0
19.10.2018 10:00:00 11,3 10,0 11,4 14,9 17,8 9 5 14 8 N 1022,8 3,9 0 0,0
19.10.2018 09:00:00 11,2 9,9 11,1 15,0 17,8 9 5 23 12 NNE 1022,3 4,0 0 0,0
19.10.2018 08:00:00 11,2 10,1 10,8 15,1 17,8 8 4 22 12 NNE 1021,6 3,8 0 0,0
19.10.2018 07:00:00 10,8 10,2 8,7 15,3 17,8 8 4 14 7 NE 1021,1 3,8 0 0,0
19.10.2018 06:00:00 10,1 9,3 9,1 15,5 17,8 5 3 12 7 NNE 1020,7 3,0 0 0,0
19.10.2018 05:00:00 10,8 9,6 9,6 15,8 17,9 5 3 16 9 NE 1020,5 4,0 0 0,0
19.10.2018 04:00:00 11,6 10,0 10,8 16,0 17,8 7 4 24 13 NNE 1020,2 5 0 0,0
19.10.2018 03:00:00 12,0 10,2 11,3 16,2 17,9 12 7 22 12 N 1020,1 6 0 0,0
19.10.2018 02:00:00 12,6 10,5 11,8 16,4 17,9 14 7 22 12 N 1020,4 7 0 0,0
19.10.2018 01:00:00 12,6 10,3 11,9 16,6 17,9 10 5 21 11 N 1020,4 7 0 0,0
19.10.2018 00:00:00 13,2 10,6 12,5 16,8 17,9 12 6 23 12 N 1020,3 8 0 0,0
18.10.2018 23:00:00 13,8 10,8 13,1 16,9 17,9 11 6 24 13 N 1020,3 11 0 0,0
18.10.2018 22:00:00 14,3 10,7 13,7 17,1 17,9 16 9 27 15 N 1020,0 17 0 0,0
18.10.2018 21:00:00 15,9 10,9 15,3 17,2 17,9 14 8 29 16 N 1019,4 20 0 0,0
18.10.2018 20:00:00 16,6 10,4 16,0 17,2 17,9 16 9 30 16 N 1018,6 20 0 0,0
18.10.2018 19:00:00 17,7 9,8 17,0 17,2 17,9 15 8 26 14 N 1017,9 20 12 0,0
18.10.2018 18:00:00 20,1 10,5 20,3 17,0 17,9 13 7 33 18 NNE 1017,1 20 26 0,0
18.10.2018 17:00:00 21,2 10,4 22,2 16,6 17,9 16 9 36 19 NNE 1017,0 20 30 0,0
18.10.2018 16:00:00 22,3 9,8 24,9 16,1 17,9 17 9 34 19 NNE 1017,1 20 60 0,0
18.10.2018 15:00:00 22,0 10,2 24,0 15,5 17,9 16 8 34 18 NNE 1017,4 19 60 0,0
18.10.2018 14:00:00 20,6 10,1 23,3 15,1 17,9 13 7 28 15 NNE 1018,2 20 60 0,0
18.10.2018 13:00:00 19,3 9,8 21,1 14,6 17,9 15 8 28 15 N 1018,8 20 52 0,0
18.10.2018 12:00:00 17,8 10,2 18,2 14,3 17,9 13 7 26 14 NNE 1019,2 20 60 0,0
18.10.2018 11:00:00 15,0 10,0 13,8 14,3 17,9 11 6 23 13 NNE 1019,7 13 60 0,0
18.10.2018 10:00:00 11,1 9,8 8,0 14,4 17,9 6 4 12 6 NNE 1019,9 9 26 0,0
18.10.2018 09:00:00 7,1 7,0 2,9 14,6 17,9 0 0 3 2 N 1019,9 2,8 18 0,0
18.10.2018 08:00:00 5,2 4,6 2,6 15,0 17,9 0 0 3 2 N 1019,7 2,8 0 0,0
18.10.2018 07:00:00 5,7 4,7 3,3 15,2 17,9 0 0 7 4 N 1019,1 4,1 0 0,0
18.10.2018 06:00:00 7,1 6,2 5,0 15,5 18,0 5 3 8 4 ENE 1018,9 5 0 0,0
18.10.2018 05:00:00 7,1 6,4 4,6 15,8 18,0 3 1 6 3 E 1018,8 4,1 0 0,0
18.10.2018 04:00:00 7,8 6,9 5,5 16,0 18,0 0 0 4 2 N 1018,7 7 0 0,0
18.10.2018 03:00:00 8,6 7,2 6,0 16,3 18,0 4 2 5 3 E 1018,7 5 0 0,0
18.10.2018 02:00:00 10,3 7,7 7,7 16,5 18,0 2 1 11 6 ESE 1018,6 11 0 0,0
18.10.2018 01:00:00 13,6 8,8 12,7 16,7 18,0 6 3 17 9 NNE 1018,2 20 0 0,0
18.10.2018 00:00:00 14,6 9,2 13,1 16,9 18,0 8 5 18 10 NNE 1018,4 20 0 0,0
17.10.2018 23:00:00 14,1 9,1 12,5 17,1 18,0 7 4 14 8 NNE 1018,4 20 0 0,0
17.10.2018 22:00:00 14,3 9,1 8,2 17,4 18,0 7 4 13 7 NNE 1018,1 20 0 0,0
17.10.2018 21:00:00 11,8 7,9 8,4 17,6 18,0 3 2 5 3 N 1018,0 20 0 0,0
17.10.2018 20:00:00 12,9 8,2 9,5 17,7 18,0 0 0 4 2 N 1017,7 20 0 0,0
17.10.2018 19:00:00 17,3 8,7 13,0 17,6 18,0 4 2 14 7 NNE 1016,8 20 14 0,0
17.10.2018 18:00:00 20,4 9,6 21,3 17,4 18,0 6 4 19 10 NNE 1016,2 20 60 0,0
17.10.2018 17:00:00 21,8 9,3 24,2 17,0 18,0 11 6 21 11 NE 1016,1 20 60 0,0
17.10.2018 16:00:00 22,0 9,2 24,7 16,4 18,0 13 7 23 12 NNE 1016,2 20 60 0,0
17.10.2018 15:00:00 21,8 9,0 25,4 15,7 18,0 11 6 23 12 NNE 1016,5 20 58 0,0
17.10.2018 14:00:00 21,6 8,8 24,3 15,0 18,0 9 5 18 10 NNE 1017,2 20 60 0,0
17.10.2018 13:00:00 20,3 8,3 24,4 14,4 18,1 8 4 12 7 NNW 1018,0 20 60 0,0
17.10.2018 12:00:00 18,0 8,0 20,0 14,1 18,1 3 2 9 5 WSW 1018,9 20 60 0,0
17.10.2018 11:00:00 15,2 7,5 14,5 13,9 18,1 4 2 8 4 SSE 1019,5 20 56 0,0
17.10.2018 10:00:00 11,2 7,9 8,6 14,0 18,1 3 2 6 3 SSW 1019,8 16 60 0,0
17.10.2018 09:00:00 6,9 6,8 1,7 14,2 18,1 0 0 3 2 N 1020,2 9 37 0,0
17.10.2018 08:00:00 3,5 2,9 1,5 14,5 18,1 0 0 5 3 N 1020,2 11 0 0,0
17.10.2018 07:00:00 3,9 3,3 1,6 14,8 18,1 3 1 5 3 SSE 1020,1 5 0 0,0
17.10.2018 06:00:00 4,7 4,0 1,9 15,2 18,1 0 0 3 2 N 1019,8 8 0 0,0
17.10.2018 05:00:00 5,2 3,8 2,5 15,5 18,1 3 2 7 4 SW 1019,8 9 0 0,0
17.10.2018 04:00:00 5,7 5,0 2,8 15,8 18,1 4 2 7 4 S 1020,1 12 0 0,0
17.10.2018 03:00:00 6,5 5,9 3,1 16,2 18,1 4 2 6 3 S 1020,4 12 0 0,0
17.10.2018 02:00:00 6,1 5,1 3,4 16,5 18,1 0 0 4 2 N 1020,5 15 0 0,0
17.10.2018 01:00:00 7,0 5,8 3,9 16,9 18,1 2 1 7 4 S 1020,4 8 0 0,0
17.10.2018 00:00:00 7,9 6,7 4,8 17,2 18,1 4 2 6 3 S 1020,2 12 0 0,0
16.10.2018 23:00:00 8,8 6,2 5,8 17,5 18,1 0 0 5 3 N 1020,0 18 0 0,0
16.10.2018 22:00:00 9,8 7,2 6,7 17,8 18,1 2 1 5 3 NW 1019,7 19 0 0,0
16.10.2018 21:00:00 11,2 8,1 7,5 18,0 18,1 3 2 7 4 N 1019,5 20 0 0,0
16.10.2018 20:00:00 14,1 7,6 10,1 18,2 18,1 4 2 9 5 NNE 1019,1 20 0 0,0
16.10.2018 19:00:00 16,6 7,0 12,5 18,2 18,1 4 2 10 5 NNE 1018,4 20 8 0,0
16.10.2018 18:00:00 20,2 7,9 20,2 18,0 18,1 5 3 13 7 NNE 1017,7 20 19 0,0
16.10.2018 17:00:00 20,9 8,2 21,1 17,7 18,1 6 4 15 8 N 1017,6 20 2 0,0
16.10.2018 16:00:00 23,2 6,5 25,6 17,0 18,1 7 4 14 8 N 1017,4 20 45 0,0
16.10.2018 15:00:00 23,0 7,5 26,6 16,3 18,1 7 4 16 8 NNE 1017,5 20 60 0,0
16.10.2018 14:00:00 21,3 8,5 25,0 15,6 18,1 7 4 16 9 NNW 1017,9 20 60 0,0
16.10.2018 13:00:00 20,1 8,4 23,4 15,0 18,1 5 3 12 6 ENE 1018,2 20 60 0,0
16.10.2018 12:00:00 17,7 8,0 20,2 14,7 18,1 4 2 8 5 NNW 1018,6 20 60 0,0
16.10.2018 11:00:00 15,9 7,9 13,2 14,6 18,1 3 1 10 5 ESE 1018,9 20 60 0,0
16.10.2018 10:00:00 11,1 8,0 7,5 14,8 18,1 0 0 5 3 N 1019,3 17 18 0,0
16.10.2018 09:00:00 6,5 5,9 3,5 15,0 18,1 0 0 3 2 N 1019,3 16 24 0,0
16.10.2018 08:00:00 4,7 4,0 2,4 15,3 18,1 3 1 5 3 SSE 1019,1 10 0 0,0
16.10.2018 07:00:00 5,0 4,3 2,6 15,6 18,1 2 1 4 2 SE 1018,8 9 0 0,0
16.10.2018 06:00:00 5,4 4,5 2,9 16,0 18,2 0 0 6 4 N 1018,6 10 0 0,0
16.10.2018 05:00:00 6,5 5,8 3,3 16,3 18,1 3 2 5 3 S 1018,0 10 0 0,0
16.10.2018 04:00:00 7,7 6,0 3,5 16,6 18,1 0 0 12 6 N 1017,5 17 0 0,0
16.10.2018 03:00:00 6,6 5,4 3,7 17,0 18,1 4 2 6 3 S 1017,4 16 0 0,0
16.10.2018 02:00:00 7,3 5,8 4,3 17,3 18,1 3 1 8 4 WSW 1017,1 19 0 0,0
16.10.2018 01:00:00 7,5 5,3 4,9 17,7 18,1 0 0 7 4 N 1016,7 20 0 0,0
16.10.2018 00:00:00 8,9 6,5 5,5 18,1 18,2 3 2 5 3 S 1016,1 20 0 0,0
15.10.2018 23:00:00 9,2 6,1 6,7 18,4 18,1 3 2 7 4 SW 1015,8 20 0 0,0
15.10.2018 22:00:00 11,9 7,2 7,4 18,7 18,1 0 0 9 5 N 1015,2 20 0 0,0
15.10.2018 21:00:00 12,0 7,5 8,2 19,0 18,2 2 1 5 3 N 1014,8 20 0 0,0
15.10.2018 20:00:00 14,4 7,4 10,0 19,1 18,1 3 2 5 3 N 1014,1 20 0 0,0
15.10.2018 19:00:00 18,7 8,1 13,7 19,1 18,2 4 2 9 5 N 1013,3 20 18 0,0
15.10.2018 18:00:00 22,5 8,6 23,5 18,8 18,1 8 4 22 12 N 1012,4 20 60 0,0
15.10.2018 17:00:00 24,0 8,4 26,7 18,4 18,2 10 5 26 14 NNE 1012,0 20 60 0,0
15.10.2018 16:00:00 24,7 7,8 27,9 17,8 18,1 15 8 26 14 N 1011,7 20 60 0,0
15.10.2018 15:00:00 24,5 7,6 27,8 17,1 18,1 16 8 29 16 N 1011,9 20 60 0,0
15.10.2018 14:00:00 24,0 8,4 26,3 16,5 18,1 14 7 28 15 N 1012,2 20 60 0,0
15.10.2018 13:00:00 22,0 8,8 23,2 16,0 18,1 12 7 19 11 N 1013,1 20 60 0,0
15.10.2018 12:00:00 19,4 8,4 22,1 15,5 18,1 8 4 14 8 N 1013,8 20 60 0,0
15.10.2018 11:00:00 17,4 8,5 16,1 15,4 18,1 2 1 5 3 E 1014,1 20 60 0,0
15.10.2018 10:00:00 13,5 8,3 10,1 15,5 18,1 3 2 6 4 S 1014,6 20 60 0,0
15.10.2018 09:00:00 8,5 8,2 3,2 15,8 18,1 4 2 8 4 SW 1014,7 20 48 0,0
15.10.2018 08:00:00 4,9 4,0 3,0 16,1 18,1 0 0 6 3 N 1014,7 14 0 0,0
15.10.2018 07:00:00 5,7 5,1 3,6 16,4 18,1 3 1 7 4 S 1014,2 15 0 0,0
15.10.2018 06:00:00 6,4 6,0 3,1 16,8 18,1 0 0 4 2 N 1013,9 18 0 0,0
15.10.2018 05:00:00 5,6 4,6 3,3 17,2 18,1 3 1 4 2 W 1014,0 18 0 0,0
15.10.2018 04:00:00 7,1 5,9 4,4 17,5 18,1 0 0 4 2 N 1013,7 20 0 0,0
15.10.2018 03:00:00 7,8 6,4 4,7 17,9 18,1 3 1 6 3 SE 1013,7 20 0 0,0
15.10.2018 02:00:00 8,5 5,6 6,5 18,3 18,1 4 2 8 4 SSE 1013,5 20 0 0,0
15.10.2018 01:00:00 9,2 7,0 6,1 18,7 18,1 6 3 8 4 S 1013,0 20 0 0,0
15.10.2018 00:00:00 10,2 6,7 7,0 19,0 18,1 2 1 9 5 S 1012,7 20 0 0,0
14.10.2018 23:00:00 10,7 6,8 7,5 19,4 18,2 5 3 7 4 SSW 1012,2 20 0 0,0
14.10.2018 22:00:00 12,0 7,5 8,0 19,7 18,1 0 0 5 3 N 1011,7 20 0 0,0
14.10.2018 21:00:00 12,8 6,8 9,4 20,0 18,1 3 2 5 3 W 1011,3 20 0 0,0
14.10.2018 20:00:00 15,4 6,7 11,6 20,1 18,1 0 0 8 4 N 1010,9 20 0 0,0
14.10.2018 19:00:00 19,3 6,7 15,3 20,1 18,1 5 3 10 6 E 1010,2 20 15 0,0
14.10.2018 18:00:00 25,9 7,5 27,5 19,8 18,1 6 3 11 6 SE 1009,5 20 60 0,0
14.10.2018 17:00:00 27,2 7,6 30,1 19,3 18,1 4 2 16 9 SSW 1009,3 20 60 0,0
14.10.2018 16:00:00 27,2 7,6 31,4 18,6 18,1 5 3 19 10 S 1009,6 18 60 0,0

tt = temperature
td = dewpoint
tt 5cm = temperature 5cm
tt -20cm = temperature -20cm
tt -100cm = temperature -100cm
ff = wind speed
fx = gusts
dd = wind direction
ppp = reduced air pressure
vv = visibility
sd = sunshine duration
rr = precipitation

Next stations